Location: Unspecified
(0.0000°N, 0.0000°E)
Time: 09:46:47
(UTC+02:00)

Cosmos 1538 Rocket - Visible Passes

Search period start: 25 October 2014 00:00
Search period end: 03 November 2014 23:00
Orbit: 753 x 793 km, 74.0° (Epoch: 24 October)

Date Brightness Start Highest point End Pass type
(mag) Time Alt. Az. Time Alt. Az. Time Alt. Az.
25 Oct 6.4 05:01:51 10° SSE 05:05:40 20° ESE 05:09:29 10° ENE visible
25 Oct 5.0 06:43:14 10° SW 06:47:33 25° WNW 06:51:52 10° NNW visible
26 Oct 5.0 05:06:56 10° SSW 05:14:18 31° NNW 05:17:14 10° N visible
